When you browse on this site, cookies collect data to enhance your experience and personalize the content and advertising you see.
Visit our Privacy Policy to learn more. By continuing to use the site, you agree to this use of cookies and data.
  • In Österreich
  • Länderverzeichnis
  • Für 7 Tage
  • Wassertemperatur
  • Satellitenkarten
  • Wetterkarte
  • News
  • Widgets
  • user-avatar
    Anmelden

    Stündliche Wetter Rosignol

    Heute, 26 Mai, Sonntag

    Zeit Temperatur Niederschläge Wind Luftdruck Luftfeuchtigkeit
    00:00 +27°C° 0.2 mm 3 m/S 759 mmHg 90%
    01:00 +27°C° 0.2 mm 3 m/S 758 mmHg 90%
    02:00 +27°C° 0.2 mm 3 m/S 758 mmHg 90%
    03:00 +27°C° 0.4 mm 3 m/S 758 mmHg 91%
    04:00 +27°C° 0.4 mm 3 m/S 758 mmHg 91%
    05:00 +27°C° 0.4 mm 3 m/S 758 mmHg 91%
    06:00 +27°C° 0.6 mm 3 m/S 758 mmHg 90%
    07:00 +28°C° 0.6 mm 3 m/S 759 mmHg 89%
    08:00 +29°C° 0.6 mm 3 m/S 759 mmHg 88%
    09:00 +29°C° 0.7 mm 3 m/S 759 mmHg 86%
    10:00 +30°C° 0.7 mm 3 m/S 759 mmHg 83%
    11:00 +31°C° 0.7 mm 3 m/S 759 mmHg 81%
    12:00 +31°C° 0.2 mm 3 m/S 758 mmHg 76%
    13:00 +33°C° 0.2 mm 3 m/S 758 mmHg 71%
    14:00 +34°C° 0.2 mm 4 m/S 757 mmHg 66%
    15:00 +33°C° 0 mm 4 m/S 757 mmHg 70%
    16:00 +32°C° 0 mm 4 m/S 756 mmHg 74%
    17:00 +30°C° 0 mm 4 m/S 756 mmHg 78%
    18:00 +29°C° 0 mm 4 m/S 757 mmHg 82%
    19:00 +28°C° 0 mm 3 m/S 757 mmHg 86%
    20:00 +27°C° 0 mm 3 m/S 758 mmHg 90%
    21:00 +27°C° 0.7 mm 3 m/S 758 mmHg 91%
    22:00 +27°C° 0.7 mm 3 m/S 758 mmHg 93%
    23:00 +27°C° 0.7 mm 3 m/S 759 mmHg 94%

    Morgen, 27 Mai, Montag

    Zeit Temperatur Niederschläge Wind Luftdruck Luftfeuchtigkeit
    00:00 +27°C° 0.8 mm 3 m/S 758 mmHg 94%
    01:00 +27°C° 0.8 mm 3 m/S 758 mmHg 94%
    02:00 +26°C° 0.8 mm 2 m/S 757 mmHg 95%
    03:00 +26°C° 1.2 mm 2 m/S 757 mmHg 95%
    04:00 +26°C° 1.2 mm 2 m/S 757 mmHg 95%
    05:00 +26°C° 1.2 mm 2 m/S 757 mmHg 94%
    06:00 +27°C° 1.4 mm 2 m/S 758 mmHg 93%
    07:00 +28°C° 1.4 mm 2 m/S 758 mmHg 91%
    08:00 +29°C° 1.4 mm 2 m/S 758 mmHg 89%
    09:00 +30°C° 1.3 mm 2 m/S 758 mmHg 85%
    10:00 +31°C° 1.3 mm 2 m/S 758 mmHg 81%
    11:00 +31°C° 1.3 mm 2 m/S 758 mmHg 76%
    12:00 +33°C° 0.3 mm 3 m/S 758 mmHg 74%
    13:00 +33°C° 0.3 mm 3 m/S 757 mmHg 71%
    14:00 +34°C° 0.3 mm 3 m/S 756 mmHg 68%
    15:00 +33°C° 0.1 mm 3 m/S 756 mmHg 71%
    16:00 +31°C° 0.1 mm 3 m/S 756 mmHg 73%
    17:00 +30°C° 0.1 mm 3 m/S 755 mmHg 76%
    18:00 +29°C° 0 mm 3 m/S 756 mmHg 80%
    19:00 +28°C° 0 mm 3 m/S 757 mmHg 83%
    20:00 +28°C° 0 mm 3 m/S 757 mmHg 87%
    21:00 +27°C° 0.2 mm 3 m/S 758 mmHg 88%
    22:00 +27°C° 0.2 mm 3 m/S 758 mmHg 88%
    23:00 +27°C° 0.2 mm 3 m/S 758 mmHg 88%

    übermorgen, 28 Mai, Dienstag

    Zeit Temperatur Niederschläge Wind Luftdruck Luftfeuchtigkeit
    00:00 +27°C° 1.2 mm 3 m/S 758 mmHg 90%
    01:00 +27°C° 1.2 mm 3 m/S 757 mmHg 91%
    02:00 +27°C° 1.2 mm 3 m/S 757 mmHg 92%
    03:00 +26°C° 3.2 mm 3 m/S 757 mmHg 93%
    04:00 +26°C° 3.2 mm 3 m/S 757 mmHg 94%
    05:00 +26°C° 3.2 mm 4 m/S 757 mmHg 95%
    06:00 +26°C° 2.4 mm 3 m/S 757 mmHg 95%
    07:00 +26°C° 2.4 mm 3 m/S 758 mmHg 95%
    08:00 +26°C° 2.4 mm 3 m/S 759 mmHg 96%
    09:00 +27°C° 0.7 mm 3 m/S 759 mmHg 93%
    10:00 +28°C° 0.7 mm 2 m/S 759 mmHg 91%
    11:00 +29°C° 0.7 mm 2 m/S 759 mmHg 89%
    12:00 +29°C° 0.8 mm 2 m/S 758 mmHg 88%
    13:00 +29°C° 0.8 mm 2 m/S 757 mmHg 88%
    14:00 +29°C° 0.8 mm 2 m/S 757 mmHg 87%
    15:00 +29°C° 0.2 mm 2 m/S 756 mmHg 88%
    16:00 +29°C° 0.2 mm 3 m/S 756 mmHg 89%
    17:00 +28°C° 0.2 mm 3 m/S 756 mmHg 90%
    18:00 +28°C° 0 mm 3 m/S 756 mmHg 90%
    19:00 +28°C° 0 mm 3 m/S 757 mmHg 91%
    20:00 +27°C° 0 mm 3 m/S 757 mmHg 91%
    21:00 +27°C° 0.2 mm 3 m/S 758 mmHg 92%
    22:00 +27°C° 0.2 mm 3 m/S 758 mmHg 92%
    23:00 +27°C° 0.2 mm 3 m/S 758 mmHg 93%

    29 Mai, Mittwoch

    Zeit Temperatur Niederschläge Wind Luftdruck Luftfeuchtigkeit
    00:00 +27°C° 0.7 mm 3 m/S 758 mmHg 93%
    01:00 +26°C° 0.7 mm 3 m/S 757 mmHg 94%
    02:00 +26°C° 0.7 mm 3 m/S 756 mmHg 95%
    03:00 +26°C° 0.7 mm 3 m/S 757 mmHg 95%
    04:00 +26°C° 0.7 mm 3 m/S 757 mmHg 95%
    05:00 +26°C° 0.7 mm 3 m/S 757 mmHg 95%
    06:00 +27°C° 0.6 mm 3 m/S 757 mmHg 93%
    07:00 +28°C° 0.6 mm 4 m/S 758 mmHg 91%
    08:00 +28°C° 0.6 mm 4 m/S 758 mmHg 89%
    09:00 +29°C° 0.7 mm 4 m/S 758 mmHg 87%
    10:00 +29°C° 0.7 mm 4 m/S 758 mmHg 85%
    11:00 +30°C° 0.7 mm 4 m/S 758 mmHg 83%
    12:00 +30°C° 0.4 mm 4 m/S 758 mmHg 79%
    13:00 +32°C° 0.4 mm 4 m/S 757 mmHg 76%
    14:00 +32°C° 0.4 mm 4 m/S 756 mmHg 72%
    15:00 +32°C° 0 mm 4 m/S 756 mmHg 74%
    16:00 +30°C° 0 mm 4 m/S 756 mmHg 76%
    17:00 +29°C° 0 mm 4 m/S 756 mmHg 77%
    18:00 +29°C° 0 mm 4 m/S 756 mmHg 80%
    19:00 +28°C° 0 mm 4 m/S 757 mmHg 83%
    20:00 +27°C° 0 mm 4 m/S 757 mmHg 86%
    21:00 +27°C° 0 mm 4 m/S 758 mmHg 87%
    22:00 +27°C° 0 mm 3 m/S 758 mmHg 88%
    23:00 +27°C° 0 mm 3 m/S 758 mmHg 89%

    30 Mai, Donnerstag

    Zeit Temperatur Niederschläge Wind Luftdruck Luftfeuchtigkeit
    00:00 +27°C° 0.2 mm 3 m/S 758 mmHg 90%
    01:00 +27°C° 0.2 mm 3 m/S 757 mmHg 92%
    02:00 +26°C° 0.2 mm 3 m/S 757 mmHg 93%
    03:00 +26°C° 0.5 mm 3 m/S 757 mmHg 94%
    04:00 +26°C° 0.5 mm 3 m/S 757 mmHg 95%
    05:00 +26°C° 0.5 mm 2 m/S 757 mmHg 95%
    06:00 +27°C° 1 mm 3 m/S 758 mmHg 94%
    07:00 +27°C° 1 mm 3 m/S 758 mmHg 92%
    08:00 +28°C° 1 mm 3 m/S 758 mmHg 90%
    09:00 +29°C° 0.7 mm 3 m/S 758 mmHg 88%
    10:00 +29°C° 0.7 mm 3 m/S 758 mmHg 85%
    11:00 +30°C° 0.7 mm 3 m/S 758 mmHg 83%
    12:00 +30°C° 0.7 mm 3 m/S 757 mmHg 83%
    13:00 +30°C° 0.7 mm 3 m/S 757 mmHg 83%
    14:00 +30°C° 0.7 mm 3 m/S 756 mmHg 82%
    15:00 +30°C° 0.4 mm 3 m/S 756 mmHg 84%
    16:00 +29°C° 0.4 mm 3 m/S 756 mmHg 86%
    17:00 +29°C° 0.4 mm 3 m/S 756 mmHg 88%
    18:00 +28°C° 0.1 mm 3 m/S 756 mmHg 89%
    19:00 +27°C° 0.1 mm 3 m/S 757 mmHg 91%
    20:00 +27°C° 0.1 mm 3 m/S 757 mmHg 92%
    21:00 +27°C° 0.1 mm 3 m/S 757 mmHg 92%
    22:00 +27°C° 0.1 mm 3 m/S 758 mmHg 91%
    23:00 +27°C° 0.1 mm 3 m/S 758 mmHg 91%

    31 Mai, Freitag

    Zeit Temperatur Niederschläge Wind Luftdruck Luftfeuchtigkeit
    00:00 +27°C° 0.2 mm 3 m/S 757 mmHg 91%
    01:00 +27°C° 0.2 mm 3 m/S 757 mmHg 91%
    02:00 +27°C° 0.2 mm 3 m/S 756 mmHg 91%
    03:00 +27°C° 2.2 mm 3 m/S 756 mmHg 92%
    04:00 +26°C° 2.2 mm 3 m/S 756 mmHg 93%
    05:00 +26°C° 2.2 mm 3 m/S 756 mmHg 94%
    06:00 +27°C° 1.8 mm 3 m/S 757 mmHg 93%
    07:00 +27°C° 1.8 mm 3 m/S 758 mmHg 92%
    08:00 +28°C° 1.8 mm 3 m/S 758 mmHg 91%
    09:00 +28°C° 1.9 mm 3 m/S 758 mmHg 92%
    10:00 +27°C° 1.9 mm 2 m/S 758 mmHg 92%
    11:00 +27°C° 1.9 mm 2 m/S 758 mmHg 93%
    12:00 +27°C° 2.3 mm 2 m/S 757 mmHg 94%
    13:00 +27°C° 2.3 mm 2 m/S 757 mmHg 95%
    14:00 +26°C° 2.3 mm 1 m/S 756 mmHg 95%
    15:00 +27°C° 0.8 mm 1 m/S 756 mmHg 95%
    16:00 +27°C° 0.8 mm 1 m/S 756 mmHg 94%
    17:00 +27°C° 0.8 mm 1 m/S 756 mmHg 93%
    18:00 +27°C° 0.1 mm 1 m/S 756 mmHg 94%
    19:00 +26°C° 0.1 mm 1 m/S 757 mmHg 95%
    20:00 +26°C° 0.1 mm 1 m/S 757 mmHg 96%
    21:00 +26°C° 0.6 mm 1 m/S 757 mmHg 96%
    22:00 +26°C° 0.6 mm 2 m/S 757 mmHg 96%
    23:00 +26°C° 0.6 mm 2 m/S 757 mmHg 96%
    Mehr zeigen